sat.trackr.live / text

‹ back to catalog

ONEWEB-0634

NORAD 56075 · 2023-043AF

PAYLOAD ACTIVE UNKNOWN

§ Identity

Operator
Country
UK
Launch date
2023-03-26
Launch site
SRILR
Launch vehicle
Mass (kg)
RCS (m²)

Purposes: comms

External: N2YO · Heavens-Above · Gunter

§ Orbital elements

Epoch: 2026-05-25T00:39:32.836896Z

Period
109.46 min
Inclination
87.8991°
Eccentricity
0.0001968
Mean motion
13.15547631 rev/d
Perigee alt
1,200.3 km
Apogee alt
1,203.3 km
Semi-major
7,579.9 km
B*
5.1107e-5
RAAN
263.8443°
Arg perigee
110.1780°
Mean anomaly
249.9562°
Rev number
15,335

§ Raw data

ONEWEB-06341 56075U 23043AF  26145.02746339  .00000032  00000+0  51107-4 0  99992 56075  87.8991 263.8443 0001968 110.1780 249.9562 13.15547631153359

JSON: /api/v1/satellites/56075 · /tle

For live sub-satellite position, see the globe view (requires WebGL).

§ Visibility from observer

Set your observer location to see the next 7 days of passes ≥ 10°. The values pass through the URL so the page stays shareable.

No JS? Fill the form by hand. The geolocation button needs JavaScript.